Weather History for Perry, FL

Change the Weather History Date:

Saturday, August 30, 2014

  Actual Average (KCTY) Record (KCTY)
Temperature  
Mean Temperature 81 °F 81 °F  
Max Temperature 91 °F 90 °F 96 °F (2001)
Min Temperature 71 °F 71 °F 70 °F (2001)
Degree Days  
Heating Degree Days 0 0  
Month to date heating degree days 0  
Since 1 June heating degree days 0  
Since 1 July heating degree days 0  
Cooling Degree Days 16 16  
Month to date cooling degree days 490  
Year to date cooling degree days 1924  
Since 1 June cooling degree days 1445  
Growing Degree Days 31 (Base 50)    
Moisture  
Dew Point 74 °F    
Average Humidity 85    
Maximum Humidity 100    
Minimum Humidity 55    
Precipitation  
Precipitation 0.00 in 0.24 in 0.96 in (2004)
Month to date precipitation 7.22  
Year to date precipitation 35.14  
Sea Level Pressure  
Sea Level Pressure 30.11 in    
Wind  
Wind Speed 2 mph (South)    
Max Wind Speed 10 mph    
Max Gust Speed 18 mph    
Visibility 10 miles    
Events Thunderstorm    
T = Trace of Precipitation, MM = Missing Value Source: NWS Daily Summary

Daily Weather History Graph

Daily Weather History Graph

Search for Another Location

Airport:

Trip Planner

Search our weather history database for the weather conditions in past years. The results will help you decide how hot, cold, wet, or windy it might be!

Date:

Astronomy

Aug. 30, 2014 Rise Set
Actual Time 7:10 AM EDT 7:59 PM EDT
Civil Twilight 6:45 AM EDT 8:23 PM EDT
Nautical Twilight 6:16 AM EDT 8:52 PM EDT
Astronomical Twilight 5:47 AM EDT 9:21 PM EDT
Moon 11:33 AM EDT (8/30) 10:56 PM EDT (8/30)
Length of Visible Light 13h 37m
Length of Day
12h 49m
Waxing Crescent, 23% of the Moon is Illuminated
Aug 30
Waxing Crescent
Sep 2
First Quarter
Sep 8
Full
Sep 15
Last Quarter
Sep 24
New

Hourly Weather History & Observations

Time (EDT) Temp. Heat Index Dew Point Humidity Pressure Visibility Wind Dir Wind Speed Gust Speed Precip Events Conditions
12:15 AM 75.2 °F - 73.4 °F 94% 30.10 in 10.0 mi Calm Calm - N/A   Clear
12:35 AM 75.2 °F - 73.4 °F 94% 30.10 in 10.0 mi Calm Calm - N/A   Clear
12:55 AM 75.2 °F - 73.4 °F 94% 30.11 in 10.0 mi Calm Calm - N/A   Clear
1:15 AM 75.2 °F - 73.4 °F 94% 30.12 in 10.0 mi ESE 6.9 mph - N/A   Clear
1:40 AM 73.4 °F - 73.4 °F 100% 30.11 in 10.0 mi ESE 6.9 mph - N/A   Clear
1:55 AM 73.4 °F - 71.6 °F 94% 30.11 in 10.0 mi ESE 4.6 mph - N/A   Clear
2:15 AM 73.4 °F - 71.6 °F 94% 30.11 in 10.0 mi SE 5.8 mph - N/A   Clear
2:35 AM 73.4 °F - 71.6 °F 94% 30.11 in 10.0 mi Calm Calm - N/A   Clear
2:55 AM 73.4 °F - 71.6 °F 94% 30.11 in 10.0 mi Calm Calm - N/A   Clear
3:15 AM 73.4 °F - 71.6 °F 94% 30.11 in 10.0 mi Calm Calm - N/A   Clear
3:35 AM 73.4 °F - 71.6 °F 94% 30.10 in 10.0 mi Calm Calm - N/A   Clear
3:55 AM 73.4 °F - 71.6 °F 94% 30.10 in 10.0 mi Calm Calm - N/A   Clear
4:15 AM 71.6 °F - 71.6 °F 100% 30.10 in 10.0 mi Calm Calm - N/A   Clear
4:35 AM 71.6 °F - 71.6 °F 100% 30.10 in 10.0 mi Calm Calm - N/A   Clear
4:55 AM 71.6 °F - 71.6 °F 100% 30.10 in 10.0 mi Calm Calm - N/A   Clear
5:20 AM 71.6 °F - 71.6 °F 100% 30.10 in 7.0 mi Calm Calm - N/A   Clear
5:35 AM 71.6 °F - 71.6 °F 100% 30.10 in 10.0 mi Calm Calm - N/A   Clear
5:55 AM 71.6 °F - 71.6 °F 100% 30.10 in 10.0 mi Calm Calm - N/A   Clear
6:15 AM 71.6 °F - 71.6 °F 100% 30.10 in 10.0 mi Calm Calm - N/A   Clear
6:35 AM 71.6 °F - 71.6 °F 100% 30.11 in 10.0 mi Calm Calm - N/A   Clear
6:55 AM 71.6 °F - 71.6 °F 100% 30.11 in 10.0 mi Calm Calm - N/A   Clear
7:15 AM 71.6 °F - 71.6 °F 100% 30.12 in 10.0 mi Calm Calm - N/A   Clear
7:35 AM 73.4 °F - 71.6 °F 94% 30.12 in 10.0 mi ESE 3.5 mph - N/A   Clear
7:55 AM 73.4 °F - 73.4 °F 100% 30.13 in 10.0 mi Calm Calm - N/A   Clear
8:15 AM 73.4 °F - 73.4 °F 100% 30.13 in 10.0 mi Calm Calm - N/A   Clear
8:40 AM 75.2 °F - 73.4 °F 94% 30.13 in 10.0 mi ESE 3.5 mph - N/A   Clear
8:55 AM 77.0 °F - 75.2 °F 94% 30.13 in 10.0 mi ESE 3.5 mph - N/A   Clear
9:15 AM 78.8 °F - 77.0 °F 94% 30.13 in 10.0 mi SE 4.6 mph - N/A   Clear
9:35 AM 78.8 °F - 77.0 °F 94% 30.13 in 10.0 mi SE 3.5 mph - N/A   Clear
9:55 AM 80.6 °F 87.1 °F 77.0 °F 89% 30.14 in 10.0 mi SSE 4.6 mph - N/A   Clear
10:15 AM 82.4 °F 90.9 °F 77.0 °F 84% 30.14 in 10.0 mi SE 3.5 mph - N/A   Clear
10:35 AM 84.2 °F 94.1 °F 77.0 °F 79% 30.14 in 10.0 mi ESE 3.5 mph - N/A   Scattered Clouds
10:55 AM 86.0 °F 95.1 °F 75.2 °F 70% 30.14 in 10.0 mi ESE 3.5 mph - N/A   Scattered Clouds
11:15 AM 86.0 °F 93.4 °F 73.4 °F 66% 30.14 in 10.0 mi Calm Calm - N/A   Clear
11:35 AM 86.0 °F 93.4 °F 73.4 °F 66% 30.14 in 10.0 mi South 3.5 mph - N/A   Scattered Clouds
11:50 AM 86.0 °F 93.4 °F 73.4 °F 66% 30.15 in 10.0 mi SSE 3.5 mph - N/A   Mostly Cloudy
12:15 PM 87.8 °F 95.6 °F 73.4 °F 62% 30.14 in 10.0 mi Calm Calm - N/A   Scattered Clouds
12:35 PM 87.8 °F 95.6 °F 73.4 °F 62% 30.13 in 10.0 mi Calm Calm - N/A   Clear
12:55 PM 89.6 °F 96.2 °F 71.6 °F 55% 30.13 in 10.0 mi Calm Calm - N/A   Scattered Clouds
1:15 PM 89.6 °F 98.2 °F 73.4 °F 59% 30.12 in 10.0 mi ESE 4.6 mph - N/A   Scattered Clouds
1:35 PM 89.6 °F 96.2 °F 71.6 °F 55% 30.11 in 10.0 mi ESE 3.5 mph - N/A Thunderstorm Scattered Clouds
1:55 PM 89.6 °F 96.2 °F 71.6 °F 55% 30.11 in 10.0 mi NW 3.5 mph - N/A   Scattered Clouds
2:15 PM 87.8 °F 95.6 °F 73.4 °F 62% 30.10 in 10.0 mi WSW 8.1 mph - N/A   Overcast
2:35 PM 89.6 °F 98.2 °F 73.4 °F 59% 30.09 in 10.0 mi WSW 5.8 mph - N/A   Overcast
2:55 PM 87.8 °F 93.8 °F 71.6 °F 58% 30.09 in 10.0 mi SSW 5.8 mph - N/A   Overcast
3:15 PM 86.0 °F 95.1 °F 75.2 °F 70% 30.08 in 10.0 mi South 6.9 mph - N/A   Mostly Cloudy
4:15 PM 91.4 °F 100.1 °F 73.4 °F 55% 30.06 in 10.0 mi SW 8.1 mph - N/A   Scattered Clouds
4:35 PM 91.4 °F 100.1 °F 73.4 °F 55% 30.06 in 10.0 mi SW 8.1 mph - N/A Thunderstorm Scattered Clouds
4:55 PM 84.2 °F 90.9 °F 73.4 °F 70% 30.06 in 10.0 mi SSE 10.4 mph 18.4 mph N/A   Mostly Cloudy
5:15 PM 82.4 °F 88.2 °F 73.4 °F 74% 30.06 in 10.0 mi South 5.8 mph - N/A   Scattered Clouds
5:40 PM 82.4 °F 89.5 °F 75.2 °F 79% 30.05 in 10.0 mi SSW 4.6 mph - N/A   Clear
5:55 PM 84.2 °F 94.1 °F 77.0 °F 79% 30.06 in 10.0 mi SW 3.5 mph - N/A   Clear
6:15 PM 86.0 °F 96.9 °F 77.0 °F 74% 30.06 in 10.0 mi WSW 6.9 mph - N/A   Clear
6:35 PM 84.2 °F 92.3 °F 75.2 °F 74% 30.06 in 10.0 mi SW 5.8 mph - N/A Thunderstorm Clear
6:55 PM 84.2 °F 92.3 °F 75.2 °F 74% 30.06 in 10.0 mi WSW 4.6 mph - N/A   Clear
7:15 PM 84.2 °F 94.1 °F 77.0 °F 79% 30.07 in 10.0 mi WSW 9.2 mph - N/A   Clear
7:40 PM 82.4 °F 90.9 °F 77.0 °F 84% 30.08 in 10.0 mi WSW 3.5 mph - N/A   Clear
7:55 PM 82.4 °F 90.9 °F 77.0 °F 84% 30.08 in 10.0 mi West 3.5 mph - N/A   Clear
8:15 PM 80.6 °F 87.1 °F 77.0 °F 89% 30.08 in 10.0 mi Calm Calm - N/A   Clear
8:35 PM 80.6 °F 87.1 °F 77.0 °F 89% 30.08 in 10.0 mi Calm Calm - N/A   Clear
8:55 PM 78.8 °F - 77.0 °F 94% 30.10 in 10.0 mi SE 3.5 mph - N/A   Clear
9:35 PM 78.8 °F - 77.0 °F 94% 30.10 in 10.0 mi Calm Calm - N/A Thunderstorm Clear
9:50 PM 78.8 °F - 77.0 °F 94% 30.11 in 10.0 mi Calm Calm - N/A   Clear
10:15 PM 78.8 °F - 77.0 °F 94% 30.11 in 10.0 mi Calm Calm - N/A   Scattered Clouds
10:35 PM 77.0 °F - 77.0 °F 100% 30.11 in 10.0 mi Calm Calm - N/A   Scattered Clouds
10:55 PM 78.8 °F - 77.0 °F 94% 30.11 in 10.0 mi Calm Calm - N/A   Clear
11:15 PM 77.0 °F - 77.0 °F 100% 30.13 in 10.0 mi Calm Calm - N/A   Scattered Clouds
11:35 PM 77.0 °F - 77.0 °F 100% 30.13 in 10.0 mi Calm Calm - N/A   Mostly Cloudy
11:55 PM 77.0 °F - 77.0 °F 100% 30.13 in 10.0 mi East 6.9 mph - N/A Thunderstorm Scattered Clouds